Location: New Mesquite
(33.1168°N, 96.4336°W)
Time: 08:31:00
(UTC+00:00)

Hubble Space Telescope - Pass Details

Date: 07 December 2022
Orbit: 529 x 532 km, 28.5° (Epoch: 29 January)

Event Time Altitude Azimuth Distance (km) Brightness Sun altitude
Exits shadow 11:38:36 13° 209° (SSW) 1,600 3.0 -19.9°
Maximum altitude 11:41:15 22° 162° (SSE) 1,169 2.8 -19.3°
Drops below altitude 10° 11:44:27 10° 110° (ESE) 1,761 4.7 -18.7°
Sets 11:47:03 0° 95° (E) 2,651 5.9 -18.2°
